Weather History for Bad Axe, MI

Change the Weather History Date:

Friday, January 11, 2013

  Actual Average (KP58) Record (KP58)
Temperature  
Mean Temperature 42 °F -  
Max Temperature 50 °F 28 °F 50 °F (2013)
Min Temperature 34 °F 18 °F 12 °F (1997)
Degree Days  
Heating Degree Days 23    
Moisture  
Dew Point 40 °F    
Average Humidity 95    
Maximum Humidity 100    
Minimum Humidity 82    
Precipitation  
Precipitation 0.00 in - - ()
Sea Level Pressure  
Sea Level Pressure 29.87 in    
Wind  
Wind Speed 11 mph (South)    
Max Wind Speed 16 mph    
Max Gust Speed 25 mph    
Visibility 6 miles    
Events Fog , Rain , Snow    
Averages and records for this station are not official NWS values.
T = Trace of Precipitation, MM = Missing Value Source: NWS Daily Summary

Daily Weather History Graph

Daily Weather History Graph

Search for Another Location

Airport:

Trip Planner

Search our weather history database for the weather conditions in past years. The results will help you decide how hot, cold, wet, or windy it might be!

Date:

Astronomy

Jan. 11, 2013 Rise Set
Actual Time 8:04 AM EST 5:15 PM EST
Civil Twilight 7:32 AM EST 5:48 PM EST
Nautical Twilight 6:56 AM EST 6:23 PM EST
Astronomical Twilight 6:21 AM EST 6:58 PM EST
Moon 7:35 AM EST (1/11) 5:34 PM EST (1/11)
Length of Visible Light 10h 15m
Length of Day
9h 11m
Waning Crescent, 0% of the Moon is Illuminated
Jan 11
Waning Crescent
Jan 11
New
Jan 18
First Quarter
Jan 26
Full
Feb 3
Last Quarter

Hourly Weather History & Observations

Time (EST) Temp. Windchill Dew Point Humidity Pressure Visibility Wind Dir Wind Speed Gust Speed Precip Events Conditions
12:14 AM 35.1 °F 27.9 °F 30.2 °F 82% 30.19 in 10.0 mi SE 9.2 mph - N/A Snow Light Snow
12:34 AM 34.9 °F 28.3 °F 30.7 °F 85% 30.18 in 10.0 mi SE 8.1 mph - N/A Snow Light Snow
12:54 AM 34.7 °F 27.5 °F 30.9 °F 86% 30.16 in 10.0 mi SE 9.2 mph - N/A   Overcast
1:13 AM 34.5 °F 29.4 °F 31.1 °F 87% 30.15 in 5.0 mi SE 5.8 mph - N/A Snow Light Snow
1:34 AM 34.3 °F 27.0 °F 31.8 °F 90% 30.14 in 3.0 mi SE 9.2 mph - N/A Snow Light Snow
1:54 AM 34.7 °F 28.1 °F 32.0 °F 90% 30.14 in 5.0 mi SSE 8.1 mph 17.3 mph N/A Snow Light Snow
2:13 AM 34.7 °F 24.7 °F 32.0 °F 90% 30.12 in 4.0 mi SSE 16.1 mph 21.9 mph N/A Snow Light Snow
2:34 AM 34.7 °F 26.4 °F 32.0 °F 90% 30.10 in 3.0 mi SE 11.5 mph 19.6 mph N/A Snow Light Snow
2:54 AM 35.1 °F 25.9 °F 32.0 °F 89% 30.11 in 2.5 mi SSE 13.8 mph 21.9 mph N/A Snow Light Snow
3:13 AM 35.2 °F 26.6 °F 32.2 °F 89% 30.10 in 4.0 mi SE 12.7 mph 25.3 mph N/A Snow Light Snow
3:34 AM 34.9 °F 24.9 °F 32.0 °F 89% 30.08 in 5.0 mi SSE 16.1 mph 24.2 mph N/A Snow Light Snow
3:54 AM 34.9 °F 26.6 °F 32.2 °F 90% 30.06 in 7.0 mi SE 11.5 mph 20.7 mph N/A   Overcast
4:14 AM 34.7 °F 25.9 °F 32.4 °F 91% 30.03 in 7.0 mi SE 12.7 mph 23.0 mph N/A   Overcast
4:34 AM 34.7 °F 26.4 °F 32.7 °F 92% 30.00 in 3.0 mi SE 11.5 mph 18.4 mph N/A Snow Light Snow
4:54 AM 34.9 °F 26.6 °F 33.1 °F 93% 29.99 in 2.5 mi SE 11.5 mph 17.3 mph N/A Snow Light Snow
5:14 AM 34.9 °F 26.2 °F 33.3 °F 94% 29.97 in 3.0 mi SSE 12.7 mph 16.1 mph N/A Snow Light Snow
5:34 AM 35.2 °F 27.6 °F 33.8 °F 94% 29.95 in 3.0 mi SE 10.4 mph 24.2 mph N/A Snow Light Snow
5:54 AM 35.2 °F 27.1 °F 33.8 °F 94% 29.94 in 4.0 mi SE 11.5 mph 18.4 mph N/A Snow Light Snow
6:14 AM 35.6 °F 27.1 °F 34.2 °F 94% 29.93 in 5.0 mi SSE 12.7 mph 18.4 mph N/A   Overcast
6:34 AM 35.6 °F 27.5 °F 34.3 °F 95% 29.91 in 10.0 mi SE 11.5 mph 18.4 mph N/A   Overcast
7:14 AM 36.1 °F 28.2 °F 35.1 °F 96% 29.90 in 10.0 mi SSE 11.5 mph 17.3 mph N/A   Overcast
7:34 AM 36.1 °F 28.7 °F 34.9 °F 95% 29.90 in 5.0 mi SSE 10.4 mph 17.3 mph N/A Snow Light Snow
7:54 AM 36.3 °F 27.5 °F 34.9 °F 95% 29.89 in 4.0 mi SSE 13.8 mph - N/A Snow Light Snow
8:14 AM 36.5 °F 29.2 °F 35.1 °F 95% 29.88 in 7.0 mi SSE 10.4 mph 20.7 mph N/A   Overcast
8:34 AM 36.7 °F 28.4 °F 35.6 °F 96% 29.87 in 7.0 mi SSE 12.7 mph 19.6 mph N/A Rain Light Rain
8:54 AM 37.0 °F 28.5 °F 35.8 °F 95% 29.85 in 7.0 mi SSE 13.8 mph 21.9 mph N/A Rain Rain
9:14 AM 37.4 °F 29.8 °F 36.0 °F 95% 29.82 in 10.0 mi SSE 11.5 mph 18.4 mph N/A Rain Rain
9:35 AM 37.6 °F 31.0 °F 36.1 °F 95% 29.80 in 10.0 mi SE 9.2 mph - N/A   Overcast
9:54 AM 37.8 °F 29.0 °F 36.5 °F 95% 29.82 in 10.0 mi SSE 15.0 mph - N/A   Overcast
10:14 AM 38.7 °F 31.8 °F 37.6 °F 96% 29.79 in 10.0 mi SSE 10.4 mph 17.3 mph N/A   Overcast
10:35 AM 39.9 °F 32.5 °F 39.0 °F 97% 29.79 in 7.0 mi SSE 12.7 mph - N/A   Overcast
10:54 AM 40.1 °F 32.4 °F 39.2 °F 97% 29.79 in 4.0 mi South 13.8 mph - N/A   Overcast
11:14 AM 39.6 °F 32.5 °F 38.8 °F 97% 29.80 in 2.5 mi South 11.5 mph 20.7 mph N/A   Overcast
11:35 AM 40.1 °F 32.0 °F 39.6 °F 98% 29.78 in 1.0 mi South 15.0 mph 20.7 mph N/A   Overcast
11:54 AM 40.1 °F 32.4 °F 39.6 °F 98% 29.77 in 0.5 mi South 13.8 mph - N/A Fog Fog
12:14 PM 40.5 °F 33.2 °F 40.1 °F 99% 29.76 in 0.2 mi South 12.7 mph - N/A Fog Fog
12:35 PM 41.0 °F 34.3 °F 40.5 °F 98% 29.75 in 0.2 mi South 11.5 mph - N/A Fog Fog
12:54 PM 41.4 °F 34.0 °F 41.2 °F 99% 29.75 in 0.2 mi South 13.8 mph 20.7 mph N/A Fog Fog
1:14 PM 42.3 °F 35.1 °F 42.3 °F 100% 29.74 in 0.8 mi South 13.8 mph 21.9 mph N/A   Overcast
1:35 PM 43.0 °F 36.4 °F 43.0 °F 100% 29.73 in 1.2 mi South 12.7 mph 18.4 mph N/A   Overcast
1:54 PM 43.9 °F 38.3 °F 43.9 °F 100% 29.73 in 1.0 mi South 10.4 mph - N/A   Overcast
2:15 PM 44.6 °F 38.8 °F 44.6 °F 100% 29.72 in 1.5 mi South 11.5 mph - N/A   Overcast
2:34 PM 44.6 °F 39.7 °F 44.6 °F 100% 29.73 in 1.2 mi SSW 9.2 mph - N/A   Overcast
3:15 PM 45.5 °F 40.3 °F 45.5 °F 100% 29.74 in 1.8 mi SSW 10.4 mph - N/A   Overcast
3:34 PM 45.5 °F 40.3 °F 45.5 °F 100% 29.75 in 1.0 mi South 10.4 mph - N/A   Overcast
3:54 PM 45.5 °F 40.8 °F 45.5 °F 100% 29.76 in 1.0 mi SSW 9.2 mph - N/A   Overcast
4:15 PM 46.0 °F 41.4 °F 46.0 °F 100% 29.75 in 1.0 mi South 9.2 mph - N/A   Overcast
4:34 PM 46.4 °F 41.1 °F 46.4 °F 100% 29.75 in 1.2 mi South 11.5 mph - N/A   Overcast
4:55 PM 46.6 °F - 46.6 °F 100% 29.76 in 1.0 mi SSW 9.2 mph - N/A   Overcast
5:14 PM 46.9 °F - 46.9 °F 100% 29.76 in 1.0 mi SSW 10.4 mph - N/A   Overcast
5:34 PM 46.9 °F - 46.9 °F 100% 29.77 in 1.5 mi SSW 6.9 mph - N/A   Overcast
5:55 PM 47.8 °F - 47.8 °F 100% 29.78 in 3.0 mi SW 9.2 mph - N/A   Overcast
6:14 PM 48.9 °F - 48.9 °F 100% 29.79 in 3.0 mi SW 9.2 mph - N/A   Overcast
6:34 PM 49.6 °F - 49.6 °F 100% 29.80 in 7.0 mi SW 13.8 mph 19.6 mph N/A   Overcast
6:55 PM 50.0 °F - 50.0 °F 100% 29.80 in 10.0 mi WSW 11.5 mph 16.1 mph N/A   Overcast
7:14 PM 49.6 °F - 49.6 °F 100% 29.81 in 10.0 mi WSW 9.2 mph - N/A   Overcast
7:35 PM 49.6 °F - 49.5 °F 99% 29.80 in 10.0 mi SW 10.4 mph - N/A   Overcast
7:54 PM 49.3 °F - 48.7 °F 98% 29.81 in 10.0 mi SW 8.1 mph - N/A   Overcast
8:14 PM 48.7 °F - 48.0 °F 97% 29.82 in 10.0 mi SSW 8.1 mph - N/A   Overcast
8:35 PM 48.4 °F - 47.7 °F 97% 29.83 in 10.0 mi SW 8.1 mph - N/A   Overcast
8:55 PM 48.9 °F - 47.3 °F 94% 29.80 in 10.0 mi SW 10.4 mph 16.1 mph N/A   Mostly Cloudy
9:14 PM 48.7 °F - 46.0 °F 90% 29.82 in 10.0 mi SW 6.9 mph - N/A   Mostly Cloudy
9:35 PM 48.6 °F - 45.5 °F 89% 29.82 in 10.0 mi SW 9.2 mph - N/A   Overcast
9:54 PM 47.3 °F - 44.8 °F 91% 29.82 in 10.0 mi SW 10.4 mph - N/A   Mostly Cloudy
10:15 PM 47.7 °F - 45.1 °F 91% 29.83 in 10.0 mi SW 6.9 mph - N/A   Scattered Clouds
10:35 PM 47.5 °F - 44.8 °F 90% 29.83 in 10.0 mi SW 8.1 mph - N/A   Clear
10:54 PM 46.0 °F 43.1 °F 43.9 °F 92% 29.82 in 10.0 mi SSW 5.8 mph - N/A   Clear
11:14 PM 46.4 °F 42.9 °F 44.2 °F 92% 29.82 in 10.0 mi SSW 6.9 mph - N/A   Clear
11:34 PM 44.6 °F 40.7 °F 42.8 °F 93% 29.82 in 10.0 mi South 6.9 mph - N/A   Clear
11:54 PM 44.1 °F 39.5 °F 42.6 °F 95% 29.82 in 10.0 mi South 8.1 mph - N/A   Clear